Location: Perryvale
(54.4667°N, 113.3833°W)
Time: 20:30:52
(UTC+00:00)

Transit 2A - Pass Details

Date: 25 May 2024
Orbit: 592 x 959 km, 66.7° (Epoch: 19 June)

Event Time Altitude Azimuth Distance (km) Brightness Sun altitude
Exits shadow 04:45:18 - 164° (SSE) 2,388 8.0 -6.6°
Reaches altitude 10° 04:46:18 10° 156° (SSE) 2,092 7.6 -6.7°
Maximum altitude 04:49:46 20° 109° (ESE) 1,585 7.2 -7.0°
Drops below altitude 10° 04:53:28 10° 62° (ENE) 2,268 8.4 -7.3°
Sets 04:56:30 0° 47° (NE) 3,274 9.4 -7.6°
